Time,TemperatureF,DewpointF,PressureIn,WindDirection,WindDirectionDegrees,WindSpeedMPH,WindSpeedGustMPH,Humidity,HourlyPrecipIn,Conditions,Clouds,dailyrainin,SolarRadiationWatts/m^2,SoftwareType,DateUTC
2013-09-14 00:01:00,51.8,46.8,30.05,ENE,70,0.0,0.0,83,0.00,,,0.00,0,Wunderground v.1.15,2013-09-14 04:01:00,
2013-09-14 00:07:00,52.2,46.9,30.05,ENE,70,0.0,0.0,82,0.00,,,0.00,0,Wunderground v.1.15,2013-09-14 04:07:00,
2013-09-14 00:12:00,52.1,46.8,30.05,ENE,70,0.0,0.0,82,0.00,,,0.00,0,Wunderground v.1.15,2013-09-14 04:12:00,
2013-09-14 00:17:00,52.1,46.4,30.05,ENE,70,1.0,1.0,81,0.00,,,0.00,0,Wunderground v.1.15,2013-09-14 04:17:00,
2013-09-14 00:22:00,52.0,46.3,30.05,ENE,70,0.0,1.0,81,0.00,,,0.00,0,Wunderground v.1.15,2013-09-14 04:22:00,
2013-09-14 00:27:00,51.5,46.5,30.05,ENE,70,0.0,1.0,83,0.00,,,0.00,0,Wunderground v.1.15,2013-09-14 04:27:00,
2013-09-14 00:32:00,51.4,46.4,30.05,ENE,70,0.0,0.0,83,0.00,,,0.00,0,Wunderground v.1.15,2013-09-14 04:32:00,
2013-09-14 00:37:00,51.2,46.5,30.05,ENE,70,0.0,0.0,84,0.00,,,0.00,0,Wunderground v.1.15,2013-09-14 04:37:00,
2013-09-14 00:42:00,51.2,46.5,30.05,ENE,70,0.0,0.0,84,0.00,,,0.00,0,Wunderground v.1.15,2013-09-14 04:42:00,
2013-09-14 00:47:00,51.1,46.4,30.05,ENE,70,0.0,1.0,84,0.00,,,0.00,0,Wunderground v.1.15,2013-09-14 04:47:00,
2013-09-14 00:52:00,50.8,46.1,30.05,ENE,70,1.0,1.0,84,0.00,,,0.00,0,Wunderground v.1.15,2013-09-14 04:52:00,
2013-09-14 00:57:00,50.6,46.3,30.05,ENE,70,0.0,2.0,85,0.00,,,0.00,0,Wunderground v.1.15,2013-09-14 04:57:00,
2013-09-14 01:02:00,50.7,46.4,30.05,ENE,70,0.0,0.0,85,0.00,,,0.00,0,Wunderground v.1.15,2013-09-14 05:02:00,
2013-09-14 01:07:00,50.5,46.2,30.05,ENE,70,0.0,1.0,85,0.00,,,0.00,0,Wunderground v.1.15,2013-09-14 05:07:00,
2013-09-14 01:12:00,50.6,46.3,30.05,ENE,70,0.0,1.0,85,0.00,,,0.00,0,Wunderground v.1.15,2013-09-14 05:12:00,
2013-09-14 01:17:00,50.8,46.5,30.05,ENE,70,0.0,1.0,85,0.00,,,0.00,0,Wunderground v.1.15,2013-09-14 05:17:00,
2013-09-14 01:22:00,50.7,46.4,30.05,ENE,70,0.0,0.0,85,0.00,,,0.00,0,Wunderground v.1.15,2013-09-14 05:22:00,
2013-09-14 01:27:00,50.5,46.5,30.05,ENE,70,0.0,0.0,86,0.00,,,0.00,0,Wunderground v.1.15,2013-09-14 05:27:00,
2013-09-14 01:32:00,50.5,46.5,30.05,ENE,70,2.0,2.0,86,0.00,,,0.00,0,Wunderground v.1.15,2013-09-14 05:32:00,
2013-09-14 01:37:00,50.9,46.2,30.05,ENE,60,1.0,2.0,84,0.00,,,0.00,0,Wunderground v.1.15,2013-09-14 05:37:00,
2013-09-14 01:42:00,51.2,46.5,30.05,NE,55,2.0,3.0,84,0.00,,,0.00,0,Wunderground v.1.15,2013-09-14 05:42:00,
2013-09-14 01:47:00,51.6,46.6,30.05,NE,53,3.0,4.0,83,0.00,,,0.00,0,Wunderground v.1.15,2013-09-14 05:47:00,
2013-09-14 01:52:00,51.9,46.6,30.05,NE,55,3.0,4.0,82,0.00,,,0.00,0,Wunderground v.1.15,2013-09-14 05:52:00,
2013-09-14 01:57:00,51.9,46.3,30.05,NE,53,2.0,5.0,81,0.00,,,0.00,0,Wunderground v.1.15,2013-09-14 05:57:00,
2013-09-14 02:02:00,51.9,46.3,30.05,NE,40,2.0,3.0,81,0.00,,,0.00,0,Wunderground v.1.15,2013-09-14 06:02:00,
2013-09-14 02:07:00,51.7,46.1,30.05,NE,40,2.0,3.0,81,0.00,,,0.00,0,Wunderground v.1.15,2013-09-14 06:07:00,
2013-09-14 02:12:00,51.5,46.2,30.06,NE,40,1.0,3.0,82,0.00,,,0.00,0,Wunderground v.1.15,2013-09-14 06:12:00,
2013-09-14 02:17:00,51.5,46.2,30.06,NE,48,1.0,3.0,82,0.00,,,0.00,0,Wunderground v.1.15,2013-09-14 06:17:00,
2013-09-14 02:22:00,51.5,46.2,30.06,NE,48,1.0,3.0,82,0.00,,,0.00,0,Wunderground v.1.15,2013-09-14 06:22:00,
2013-09-14 02:27:00,51.5,46.2,30.06,NE,48,1.0,3.0,82,0.00,,,0.00,0,Wunderground v.1.15,2013-09-14 06:27:00,
2013-09-14 02:32:00,51.6,46.0,30.06,NE,49,3.0,3.0,81,0.00,,,0.00,0,Wunderground v.1.15,2013-09-14 06:32:00,
2013-09-14 02:37:00,51.7,46.1,30.06,NE,49,1.0,4.0,81,0.00,,,0.00,0,Wunderground v.1.15,2013-09-14 06:37:00,
2013-09-14 02:42:00,51.7,46.1,30.06,NE,53,1.0,3.0,81,0.00,,,0.00,0,Wunderground v.1.15,2013-09-14 06:42:00,
2013-09-14 02:47:00,51.7,46.1,30.06,NE,53,1.0,3.0,81,0.00,,,0.00,0,Wunderground v.1.15,2013-09-14 06:47:00,
2013-09-14 02:52:00,51.6,46.0,30.06,NE,53,2.0,3.0,81,0.00,,,0.00,0,Wunderground v.1.15,2013-09-14 06:52:00,
2013-09-14 02:57:00,51.6,46.0,30.07,NE,53,1.0,3.0,81,0.00,,,0.00,0,Wunderground v.1.15,2013-09-14 06:57:00,
2013-09-14 03:02:00,51.6,46.0,30.06,ENE,57,1.0,3.0,81,0.00,,,0.00,0,Wunderground v.1.15,2013-09-14 07:02:00,
2013-09-14 03:07:00,51.6,46.0,30.06,ENE,62,2.0,4.0,81,0.00,,,0.00,0,Wunderground v.1.15,2013-09-14 07:07:00,
2013-09-14 03:12:00,51.5,45.9,30.06,ENE,62,1.0,3.0,81,0.00,,,0.00,0,Wunderground v.1.15,2013-09-14 07:12:00,
2013-09-14 03:17:00,51.3,45.7,30.06,ENE,61,2.0,3.0,81,0.00,,,0.00,0,Wunderground v.1.15,2013-09-14 07:17:00,
2013-09-14 03:22:00,51.1,45.8,30.06,NE,53,2.0,3.0,82,0.00,,,0.00,0,Wunderground v.1.15,2013-09-14 07:22:00,
2013-09-14 03:27:00,51.0,45.7,30.06,NE,53,1.0,3.0,82,0.00,,,0.00,0,Wunderground v.1.15,2013-09-14 07:27:00,
2013-09-14 03:32:00,51.0,45.7,30.06,NE,53,1.0,2.0,82,0.00,,,0.00,0,Wunderground v.1.15,2013-09-14 07:32:00,
2013-09-14 03:37:00,50.9,45.6,30.06,NE,53,1.0,2.0,82,0.00,,,0.00,0,Wunderground v.1.15,2013-09-14 07:37:00,
2013-09-14 03:42:00,50.7,45.7,30.06,NE,53,1.0,3.0,83,0.00,,,0.00,0,Wunderground v.1.15,2013-09-14 07:42:00,
2013-09-14 03:47:00,50.6,45.6,30.06,NE,53,1.0,3.0,83,0.00,,,0.00,0,Wunderground v.1.15,2013-09-14 07:47:00,
2013-09-14 03:52:00,50.6,45.6,30.06,NE,53,1.0,3.0,83,0.00,,,0.00,0,Wunderground v.1.15,2013-09-14 07:52:00,
2013-09-14 03:57:00,50.5,45.5,30.06,NE,49,2.0,4.0,83,0.00,,,0.00,0,Wunderground v.1.15,2013-09-14 07:57:00,
2013-09-14 04:02:00,50.4,45.7,30.07,NE,49,3.0,3.0,84,0.00,,,0.00,0,Wunderground v.1.15,2013-09-14 08:02:00,
2013-09-14 04:07:00,50.2,45.6,30.07,NE,49,1.0,3.0,84,0.00,,,0.00,0,Wunderground v.1.15,2013-09-14 08:07:00,
2013-09-14 04:12:00,50.1,45.5,30.06,NE,49,1.0,2.0,84,0.00,,,0.00,0,Wunderground v.1.15,2013-09-14 08:12:00,
2013-09-14 04:17:00,50.0,45.4,30.06,NE,49,2.0,2.0,84,0.00,,,0.00,0,Wunderground v.1.15,2013-09-14 08:17:00,
2013-09-14 04:22:00,49.9,45.6,30.06,NE,49,1.0,2.0,85,0.00,,,0.00,0,Wunderground v.1.15,2013-09-14 08:22:00,
2013-09-14 04:27:00,49.7,45.4,30.06,NE,49,2.0,3.0,85,0.00,,,0.00,0,Wunderground v.1.15,2013-09-14 08:27:00,
2013-09-14 04:32:00,49.6,45.3,30.06,NE,49,2.0,3.0,85,0.00,,,0.00,0,Wunderground v.1.15,2013-09-14 08:32:00,
2013-09-14 04:37:00,49.6,45.6,30.06,NE,49,1.0,3.0,86,0.00,,,0.00,0,Wunderground v.1.15,2013-09-14 08:37:00,
2013-09-14 04:43:00,49.5,45.5,30.07,NE,50,2.0,3.0,86,0.00,,,0.00,0,Wunderground v.1.15,2013-09-14 08:43:00,
2013-09-14 04:47:00,49.4,45.4,30.07,NE,44,2.0,4.0,86,0.00,,,0.00,0,Wunderground v.1.15,2013-09-14 08:47:00,
2013-09-14 04:52:00,49.3,45.3,30.07,NE,44,2.0,3.0,86,0.00,,,0.00,0,Wunderground v.1.15,2013-09-14 08:52:00,
2013-09-14 04:57:00,49.2,45.2,30.07,NE,44,2.0,3.0,86,0.00,,,0.00,0,Wunderground v.1.15,2013-09-14 08:57:00,
2013-09-14 05:03:00,49.2,45.2,30.07,NE,44,1.0,3.0,86,0.00,,,0.00,0,Wunderground v.1.15,2013-09-14 09:03:00,
2013-09-14 05:08:00,49.1,45.1,30.07,NE,44,1.0,3.0,86,0.00,,,0.00,0,Wunderground v.1.15,2013-09-14 09:08:00,
2013-09-14 05:13:00,49.0,45.3,30.07,NE,44,1.0,2.0,87,0.00,,,0.00,0,Wunderground v.1.15,2013-09-14 09:13:00,
2013-09-14 05:18:00,48.8,45.1,30.07,NE,44,2.0,3.0,87,0.00,,,0.00,0,Wunderground v.1.15,2013-09-14 09:18:00,
2013-09-14 05:23:00,48.7,45.0,30.07,NE,44,2.0,3.0,87,0.00,,,0.00,0,Wunderground v.1.15,2013-09-14 09:23:00,
2013-09-14 05:28:00,48.7,45.3,30.07,NE,46,1.0,3.0,88,0.00,,,0.00,0,Wunderground v.1.15,2013-09-14 09:28:00,
2013-09-14 05:33:00,48.7,45.3,30.07,NE,49,2.0,2.0,88,0.00,,,0.00,0,Wunderground v.1.15,2013-09-14 09:33:00,
2013-09-14 05:38:00,48.9,45.5,30.07,NE,50,1.0,3.0,88,0.00,,,0.00,0,Wunderground v.1.15,2013-09-14 09:38:00,
2013-09-14 05:43:00,49.1,45.7,30.07,NE,49,3.0,4.0,88,0.00,,,0.00,0,Wunderground v.1.15,2013-09-14 09:43:00,
2013-09-14 05:48:00,49.0,45.6,30.07,NE,53,2.0,4.0,88,0.00,,,0.00,0,Wunderground v.1.15,2013-09-14 09:48:00,
2013-09-14 05:53:00,48.9,45.5,30.08,NE,53,2.0,4.0,88,0.00,,,0.00,0,Wunderground v.1.15,2013-09-14 09:53:00,
2013-09-14 05:58:00,49.0,45.6,30.08,NE,55,3.0,4.0,88,0.00,,,0.00,0,Wunderground v.1.15,2013-09-14 09:58:00,
2013-09-14 06:03:00,48.8,45.4,30.08,NE,55,2.0,4.0,88,0.00,,,0.00,0,Wunderground v.1.15,2013-09-14 10:03:00,
2013-09-14 06:08:00,48.8,45.4,30.08,NE,53,3.0,3.0,88,0.00,,,0.00,0,Wunderground v.1.15,2013-09-14 10:08:00,
2013-09-14 06:13:00,48.7,45.3,30.08,NE,49,2.0,3.0,88,0.00,,,0.00,0,Wunderground v.1.15,2013-09-14 10:13:00,
2013-09-14 06:18:00,48.7,45.3,30.08,NE,49,2.0,2.0,88,0.00,,,0.00,0,Wunderground v.1.15,2013-09-14 10:18:00,
2013-09-14 06:23:00,48.5,45.4,30.08,NE,49,1.0,3.0,89,0.00,,,0.00,0,Wunderground v.1.15,2013-09-14 10:23:00,
2013-09-14 06:28:00,48.4,45.3,30.08,NE,49,0.0,2.0,89,0.00,,,0.00,0,Wunderground v.1.15,2013-09-14 10:28:00,
2013-09-14 06:33:00,48.4,45.3,30.08,NE,49,3.0,3.0,89,0.00,,,0.00,0,Wunderground v.1.15,2013-09-14 10:33:00,
2013-09-14 06:38:00,48.4,45.3,30.08,ENE,57,3.0,3.0,89,0.00,,,0.00,0,Wunderground v.1.15,2013-09-14 10:38:00,
2013-09-14 06:43:00,48.3,45.2,30.08,ENE,57,2.0,4.0,89,0.00,,,0.00,0,Wunderground v.1.15,2013-09-14 10:43:00,
2013-09-14 06:48:00,48.2,45.1,30.08,NE,52,3.0,3.0,89,0.00,,,0.00,0,Wunderground v.1.15,2013-09-14 10:48:00,
2013-09-14 06:53:00,48.2,45.4,30.08,NE,51,1.0,3.0,90,0.00,,,0.00,0,Wunderground v.1.15,2013-09-14 10:53:00,
2013-09-14 06:58:00,48.1,45.3,30.09,NE,51,2.0,2.0,90,0.00,,,0.00,0,Wunderground v.1.15,2013-09-14 10:58:00,
2013-09-14 07:03:00,48.0,45.2,30.09,NE,46,2.0,3.0,90,0.00,,,0.00,0,Wunderground v.1.15,2013-09-14 11:03:00,
2013-09-14 07:08:00,47.9,45.1,30.09,NE,46,1.0,2.0,90,0.00,,,0.00,0,Wunderground v.1.15,2013-09-14 11:08:00,
2013-09-14 07:13:00,47.9,45.1,30.09,NE,46,2.0,2.0,90,0.00,,,0.00,0,Wunderground v.1.15,2013-09-14 11:13:00,
2013-09-14 07:18:00,47.8,45.0,30.09,NE,46,1.0,2.0,90,0.00,,,0.00,0,Wunderground v.1.15,2013-09-14 11:18:00,
2013-09-14 07:23:00,47.7,44.9,30.09,NE,46,0.0,3.0,90,0.00,,,0.00,5,Wunderground v.1.15,2013-09-14 11:23:00,
2013-09-14 07:28:00,47.8,45.0,30.10,NE,49,0.0,2.0,90,0.00,,,0.00,9,Wunderground v.1.15,2013-09-14 11:28:00,
2013-09-14 07:33:00,47.7,45.2,30.10,NE,49,1.0,2.0,91,0.00,,,0.00,11,Wunderground v.1.15,2013-09-14 11:33:00,
2013-09-14 07:38:00,47.7,45.2,30.10,NE,49,1.0,2.0,91,0.00,,,0.00,18,Wunderground v.1.15,2013-09-14 11:38:00,
2013-09-14 07:43:00,47.9,45.4,30.10,NE,49,1.0,2.0,91,0.00,,,0.00,21,Wunderground v.1.15,2013-09-14 11:43:00,
2013-09-14 07:48:00,48.0,45.5,30.10,NE,49,2.0,2.0,91,0.00,,,0.00,42,Wunderground v.1.15,2013-09-14 11:48:00,
2013-09-14 07:53:00,48.3,45.8,30.11,NE,49,1.0,3.0,91,0.00,,,0.00,58,Wunderground v.1.15,2013-09-14 11:53:00,
2013-09-14 07:58:00,48.5,45.7,30.11,NE,49,3.0,3.0,90,0.00,,,0.00,74,Wunderground v.1.15,2013-09-14 11:58:00,
2013-09-14 08:03:00,48.7,45.9,30.11,ENE,57,4.0,4.0,90,0.00,,,0.00,91,Wunderground v.1.15,2013-09-14 12:03:00,
2013-09-14 08:08:00,48.9,46.1,30.11,NE,53,4.0,4.0,90,0.00,,,0.00,109,Wunderground v.1.15,2013-09-14 12:08:00,
2013-09-14 08:13:00,49.1,46.3,30.11,NE,50,2.0,8.0,90,0.00,,,0.00,127,Wunderground v.1.15,2013-09-14 12:13:00,
2013-09-14 08:18:00,49.4,46.6,30.12,ENE,69,3.0,4.0,90,0.00,,,0.00,146,Wunderground v.1.15,2013-09-14 12:18:00,
2013-09-14 08:23:00,49.7,46.6,30.12,ENE,58,3.0,7.0,89,0.00,,,0.00,162,Wunderground v.1.15,2013-09-14 12:23:00,
2013-09-14 08:28:00,50.1,46.7,30.12,NE,49,6.0,6.0,88,0.00,,,0.00,181,Wunderground v.1.15,2013-09-14 12:28:00,
2013-09-14 08:33:00,50.2,47.1,30.13,ENE,59,3.0,7.0,89,0.00,,,0.00,199,Wunderground v.1.15,2013-09-14 12:33:00,
2013-09-14 08:38:00,50.7,47.3,30.13,NE,38,4.0,4.0,88,0.00,,,0.00,216,Wunderground v.1.15,2013-09-14 12:38:00,
2013-09-14 08:43:00,51.0,47.6,30.13,ENE,74,2.0,7.0,88,0.00,,,0.00,234,Wunderground v.1.15,2013-09-14 12:43:00,
2013-09-14 08:48:00,51.3,47.6,30.13,ENE,72,1.0,5.0,87,0.00,,,0.00,251,Wunderground v.1.15,2013-09-14 12:48:00,
2013-09-14 08:53:00,51.5,47.8,30.13,East,92,2.0,7.0,87,0.00,,,0.00,269,Wunderground v.1.15,2013-09-14 12:53:00,
2013-09-14 08:58:00,52.1,48.3,30.13,East,96,3.0,7.0,87,0.00,,,0.00,288,Wunderground v.1.15,2013-09-14 12:58:00,
2013-09-14 09:03:00,52.4,48.6,30.13,East,96,5.0,7.0,87,0.00,,,0.00,304,Wunderground v.1.15,2013-09-14 13:03:00,
2013-09-14 09:08:00,52.8,48.7,30.13,ESE,121,5.0,5.0,86,0.00,,,0.00,323,Wunderground v.1.15,2013-09-14 13:08:00,
2013-09-14 09:13:00,52.6,48.2,30.13,East,93,9.0,11.0,85,0.00,,,0.00,341,Wunderground v.1.15,2013-09-14 13:13:00,
2013-09-14 09:18:00,52.7,48.6,30.13,ESE,119,10.0,11.0,86,0.00,,,0.00,359,Wunderground v.1.15,2013-09-14 13:18:00,
2013-09-14 09:23:00,53.0,48.6,30.13,East,91,9.0,13.0,85,0.00,,,0.00,376,Wunderground v.1.15,2013-09-14 13:23:00,
2013-09-14 09:28:00,53.3,48.9,30.13,SE,132,6.0,8.0,85,0.00,,,0.00,394,Wunderground v.1.15,2013-09-14 13:28:00,
2013-09-14 09:33:00,54.2,49.8,30.13,East,82,10.0,11.0,85,0.00,,,0.00,411,Wunderground v.1.15,2013-09-14 13:33:00,
2013-09-14 09:38:00,54.2,49.1,30.13,NE,36,5.0,6.0,83,0.00,,,0.00,425,Wunderground v.1.15,2013-09-14 13:38:00,
2013-09-14 09:43:00,54.5,49.1,30.13,East,87,6.0,11.0,82,0.00,,,0.00,443,Wunderground v.1.15,2013-09-14 13:43:00,
2013-09-14 09:48:00,55.0,49.3,30.13,ENE,71,5.0,7.0,81,0.00,,,0.00,462,Wunderground v.1.15,2013-09-14 13:48:00,
2013-09-14 09:53:00,55.4,49.7,30.13,ENE,64,7.0,9.0,81,0.00,,,0.00,476,Wunderground v.1.15,2013-09-14 13:53:00,
2013-09-14 09:58:00,56.0,49.6,30.13,ENE,77,7.0,8.0,79,0.00,,,0.00,494,Wunderground v.1.15,2013-09-14 13:58:00,
2013-09-14 10:03:00,56.5,50.1,30.13,ENE,71,4.0,9.0,79,0.00,,,0.00,510,Wunderground v.1.15,2013-09-14 14:03:00,
2013-09-14 10:08:00,56.5,49.0,30.13,ENE,69,5.0,10.0,76,0.00,,,0.00,526,Wunderground v.1.15,2013-09-14 14:08:00,
2013-09-14 10:13:00,56.7,49.6,30.14,ENE,69,5.0,12.0,77,0.00,,,0.00,541,Wunderground v.1.15,2013-09-14 14:13:00,
2013-09-14 10:18:00,56.8,49.3,30.14,ENE,68,7.0,10.0,76,0.00,,,0.00,554,Wunderground v.1.15,2013-09-14 14:18:00,
2013-09-14 10:23:00,57.5,49.6,30.14,East,86,9.0,10.0,75,0.00,,,0.00,568,Wunderground v.1.15,2013-09-14 14:23:00,
2013-09-14 10:28:00,57.7,50.5,30.14,East,90,3.0,8.0,77,0.00,,,0.00,585,Wunderground v.1.15,2013-09-14 14:28:00,
2013-09-14 10:33:00,58.2,50.3,30.14,NE,49,5.0,11.0,75,0.00,,,0.00,598,Wunderground v.1.15,2013-09-14 14:33:00,
2013-09-14 10:38:00,58.2,50.0,30.14,ENE,70,7.0,8.0,74,0.00,,,0.00,613,Wunderground v.1.15,2013-09-14 14:38:00,
2013-09-14 10:43:00,59.3,51.0,30.14,ENE,76,8.0,11.0,74,0.00,,,0.00,624,Wunderground v.1.15,2013-09-14 14:43:00,
2013-09-14 10:48:00,59.4,50.7,30.14,ENE,61,7.0,11.0,73,0.00,,,0.00,640,Wunderground v.1.15,2013-09-14 14:48:00,
2013-09-14 10:53:00,59.4,50.7,30.14,ENE,71,9.0,14.0,73,0.00,,,0.00,649,Wunderground v.1.15,2013-09-14 14:53:00,
2013-09-14 10:58:00,59.3,49.9,30.14,East,89,5.0,9.0,71,0.00,,,0.00,664,Wunderground v.1.15,2013-09-14 14:58:00,
2013-09-14 11:04:00,59.7,49.9,30.14,East,97,10.0,11.0,70,0.00,,,0.00,677,Wunderground v.1.15,2013-09-14 15:04:00,
2013-09-14 11:09:00,60.0,50.2,30.14,ENE,59,5.0,7.0,70,0.00,,,0.00,696,Wunderground v.1.15,2013-09-14 15:09:00,
2013-09-14 11:14:00,60.5,49.9,30.14,NE,52,8.0,11.0,68,0.00,,,0.00,701,Wunderground v.1.15,2013-09-14 15:14:00,
2013-09-14 11:19:00,60.5,49.9,30.14,ENE,63,7.0,7.0,68,0.00,,,0.00,717,Wunderground v.1.15,2013-09-14 15:19:00,
2013-09-14 11:24:00,61.0,50.4,30.14,ENE,61,4.0,13.0,68,0.00,,,0.00,729,Wunderground v.1.15,2013-09-14 15:24:00,
2013-09-14 11:29:00,61.2,50.2,30.14,NE,42,8.0,13.0,67,0.00,,,0.00,738,Wunderground v.1.15,2013-09-14 15:29:00,
2013-09-14 11:34:00,60.9,50.3,30.14,East,98,9.0,13.0,68,0.00,,,0.00,742,Wunderground v.1.15,2013-09-14 15:34:00,
2013-09-14 11:39:00,60.8,49.4,30.14,East,89,5.0,9.0,66,0.00,,,0.00,782,Wunderground v.1.15,2013-09-14 15:39:00,
2013-09-14 11:44:00,61.6,48.9,30.14,East,100,7.0,11.0,63,0.00,,,0.00,782,Wunderground v.1.15,2013-09-14 15:44:00,
2013-09-14 11:49:00,61.4,49.1,30.14,ESE,104,10.0,11.0,64,0.00,,,0.00,782,Wunderground v.1.15,2013-09-14 15:49:00,
2013-09-14 11:54:00,61.7,49.0,30.14,ESE,117,10.0,15.0,63,0.00,,,0.00,793,Wunderground v.1.15,2013-09-14 15:54:00,
2013-09-14 11:59:00,62.0,49.7,30.14,ESE,109,9.0,11.0,64,0.00,,,0.00,812,Wunderground v.1.15,2013-09-14 15:59:00,
2013-09-14 12:04:00,62.4,48.8,30.14,East,86,8.0,14.0,61,0.00,,,0.00,795,Wunderground v.1.15,2013-09-14 16:04:00,
2013-09-14 12:09:00,62.3,49.1,30.14,East,96,3.0,8.0,62,0.00,,,0.00,805,Wunderground v.1.15,2013-09-14 16:09:00,
2013-09-14 12:14:00,62.7,47.7,30.14,ESE,112,9.0,11.0,58,0.00,,,0.00,810,Wunderground v.1.15,2013-09-14 16:14:00,
2013-09-14 12:19:00,62.7,48.6,30.14,SE,136,10.0,10.0,60,0.00,,,0.00,817,Wunderground v.1.15,2013-09-14 16:19:00,
2013-09-14 12:24:00,63.3,49.2,30.14,ENE,66,10.0,13.0,60,0.00,,,0.00,828,Wunderground v.1.15,2013-09-14 16:24:00,
2013-09-14 12:29:00,63.0,49.3,30.14,ESE,121,7.0,8.0,61,0.00,,,0.00,821,Wunderground v.1.15,2013-09-14 16:29:00,
2013-09-14 12:34:00,63.0,48.9,30.14,East,94,7.0,13.0,60,0.00,,,0.00,831,Wunderground v.1.15,2013-09-14 16:34:00,
2013-09-14 12:39:00,62.5,47.5,30.14,ENE,78,8.0,14.0,58,0.00,,,0.00,833,Wunderground v.1.15,2013-09-14 16:39:00,
2013-09-14 12:44:00,63.0,48.9,30.14,ESE,105,5.0,14.0,60,0.00,,,0.00,846,Wunderground v.1.15,2013-09-14 16:44:00,
2013-09-14 12:49:00,63.8,49.6,30.14,ENE,57,7.0,11.0,60,0.00,,,0.00,853,Wunderground v.1.15,2013-09-14 16:49:00,
2013-09-14 12:54:00,64.5,49.4,30.13,ENE,60,7.0,11.0,58,0.00,,,0.00,854,Wunderground v.1.15,2013-09-14 16:54:00,
2013-09-14 12:59:00,63.8,48.3,30.13,ENE,59,4.0,8.0,57,0.00,,,0.00,851,Wunderground v.1.15,2013-09-14 16:59:00,
2013-09-14 13:04:00,64.2,49.1,30.13,East,89,6.0,11.0,58,0.00,,,0.00,861,Wunderground v.1.15,2013-09-14 17:04:00,
2013-09-14 13:09:00,64.1,47.6,30.13,East,94,5.0,10.0,55,0.00,,,0.00,854,Wunderground v.1.15,2013-09-14 17:09:00,
2013-09-14 13:14:00,64.3,48.7,30.13,SE,136,2.0,14.0,57,0.00,,,0.00,856,Wunderground v.1.15,2013-09-14 17:14:00,
2013-09-14 13:19:00,64.4,48.4,30.13,ENE,68,3.0,8.0,56,0.00,,,0.00,858,Wunderground v.1.15,2013-09-14 17:19:00,
2013-09-14 13:24:00,64.6,48.1,30.13,East,88,8.0,13.0,55,0.00,,,0.00,868,Wunderground v.1.15,2013-09-14 17:24:00,
2013-09-14 13:29:00,64.4,48.4,30.13,ENE,74,5.0,7.0,56,0.00,,,0.00,868,Wunderground v.1.15,2013-09-14 17:29:00,
2013-09-14 13:34:00,64.4,47.9,30.13,SE,126,3.0,10.0,55,0.00,,,0.00,867,Wunderground v.1.15,2013-09-14 17:34:00,
2013-09-14 13:39:00,65.2,50.5,30.12,SE,146,14.0,14.0,59,0.00,,,0.00,865,Wunderground v.1.15,2013-09-14 17:39:00,
2013-09-14 13:44:00,64.6,49.0,30.12,SE,146,8.0,14.0,57,0.00,,,0.00,860,Wunderground v.1.15,2013-09-14 17:44:00,
2013-09-14 13:49:00,65.4,50.2,30.12,ENE,77,5.0,13.0,58,0.00,,,0.00,863,Wunderground v.1.15,2013-09-14 17:49:00,
2013-09-14 13:54:00,65.6,49.0,30.12,ENE,58,7.0,13.0,55,0.00,,,0.00,858,Wunderground v.1.15,2013-09-14 17:54:00,
2013-09-14 13:59:00,66.0,48.9,30.12,East,96,8.0,11.0,54,0.00,,,0.00,863,Wunderground v.1.15,2013-09-14 17:59:00,
2013-09-14 14:04:00,65.0,48.4,30.12,East,92,1.0,11.0,55,0.00,,,0.00,851,Wunderground v.1.15,2013-09-14 18:04:00,
2013-09-14 14:09:00,66.5,50.3,30.11,ENE,71,5.0,11.0,56,0.00,,,0.00,853,Wunderground v.1.15,2013-09-14 18:09:00,
2013-09-14 14:14:00,65.8,48.2,30.11,NE,55,4.0,13.0,53,0.00,,,0.00,846,Wunderground v.1.15,2013-09-14 18:14:00,
2013-09-14 14:19:00,66.9,49.7,30.11,ENE,60,1.0,7.0,54,0.00,,,0.00,842,Wunderground v.1.15,2013-09-14 18:19:00,
2013-09-14 14:24:00,66.7,49.5,30.11,East,87,10.0,10.0,54,0.00,,,0.00,840,Wunderground v.1.15,2013-09-14 18:24:00,
2013-09-14 14:29:00,66.6,48.4,30.10,ENE,58,9.0,11.0,52,0.00,,,0.00,833,Wunderground v.1.15,2013-09-14 18:29:00,
2013-09-14 14:34:00,66.5,48.3,30.10,NE,42,6.0,11.0,52,0.00,,,0.00,826,Wunderground v.1.15,2013-09-14 18:34:00,
2013-09-14 14:39:00,66.5,47.8,30.10,East,94,7.0,9.0,51,0.00,,,0.00,819,Wunderground v.1.15,2013-09-14 18:39:00,
2013-09-14 14:44:00,67.0,48.8,30.10,ENE,63,5.0,10.0,52,0.00,,,0.00,817,Wunderground v.1.15,2013-09-14 18:44:00,
2013-09-14 14:49:00,66.5,46.7,30.09,NE,55,2.0,5.0,49,0.00,,,0.00,805,Wunderground v.1.15,2013-09-14 18:49:00,
2013-09-14 14:54:00,66.6,46.8,30.10,SSE,167,4.0,12.0,49,0.00,,,0.00,802,Wunderground v.1.15,2013-09-14 18:54:00,
2013-09-14 14:59:00,67.2,46.8,30.09,SSW,196,2.0,6.0,48,0.00,,,0.00,793,Wunderground v.1.15,2013-09-14 18:59:00,
2013-09-14 15:04:00,67.5,47.1,30.09,ENE,75,5.0,12.0,48,0.00,,,0.00,782,Wunderground v.1.15,2013-09-14 19:04:00,
2013-09-14 15:09:00,67.9,46.9,30.09,East,82,5.0,8.0,47,0.00,,,0.00,777,Wunderground v.1.15,2013-09-14 19:09:00,
2013-09-14 15:15:00,67.6,46.6,30.09,SE,143,6.0,12.0,47,0.00,,,0.00,766,Wunderground v.1.15,2013-09-14 19:15:00,
2013-09-14 15:20:00,67.5,46.6,30.09,SE,135,3.0,8.0,47,0.00,,,0.00,759,Wunderground v.1.15,2013-09-14 19:20:00,
2013-09-14 15:25:00,67.5,47.7,30.09,East,82,2.0,11.0,49,0.00,,,0.00,751,Wunderground v.1.15,2013-09-14 19:25:00,
2013-09-14 15:30:00,67.9,47.5,30.09,NE,46,6.0,11.0,48,0.00,,,0.00,738,Wunderground v.1.15,2013-09-14 19:30:00,
2013-09-14 15:35:00,68.1,48.8,30.09,NE,38,7.0,11.0,50,0.00,,,0.00,726,Wunderground v.1.15,2013-09-14 19:35:00,
2013-09-14 15:40:00,68.7,48.2,30.08,NE,40,2.0,7.0,48,0.00,,,0.00,715,Wunderground v.1.15,2013-09-14 19:40:00,
2013-09-14 15:45:00,68.9,47.8,30.09,East,79,5.0,8.0,47,0.00,,,0.00,701,Wunderground v.1.15,2013-09-14 19:45:00,
2013-09-14 15:50:00,69.1,47.4,30.08,SSE,161,2.0,8.0,46,0.00,,,0.00,694,Wunderground v.1.15,2013-09-14 19:50:00,
2013-09-14 15:55:00,68.6,47.0,30.08,NE,53,8.0,9.0,46,0.00,,,0.00,679,Wunderground v.1.15,2013-09-14 19:55:00,
2013-09-14 16:00:00,68.5,47.5,30.08,ENE,67,4.0,10.0,47,0.00,,,0.00,668,Wunderground v.1.15,2013-09-14 20:00:00,
2013-09-14 16:05:00,68.6,47.0,30.08,ENE,76,4.0,10.0,46,0.00,,,0.00,659,Wunderground v.1.15,2013-09-14 20:05:00,
2013-09-14 16:10:00,69.0,47.4,30.08,ENE,70,9.0,11.0,46,0.00,,,0.00,645,Wunderground v.1.15,2013-09-14 20:10:00,
2013-09-14 16:15:00,69.4,47.7,30.08,East,100,7.0,11.0,46,0.00,,,0.00,631,Wunderground v.1.15,2013-09-14 20:15:00,
2013-09-14 16:20:00,68.9,47.3,30.08,ENE,67,4.0,7.0,46,0.00,,,0.00,621,Wunderground v.1.15,2013-09-14 20:20:00,
2013-09-14 16:25:00,69.1,46.3,30.08,East,86,7.0,11.0,44,0.00,,,0.00,605,Wunderground v.1.15,2013-09-14 20:25:00,
2013-09-14 16:30:00,69.0,45.6,30.08,ESE,103,8.0,14.0,43,0.00,,,0.00,592,Wunderground v.1.15,2013-09-14 20:30:00,
2013-09-14 16:35:00,68.8,45.4,30.08,East,87,5.0,14.0,43,0.00,,,0.00,578,Wunderground v.1.15,2013-09-14 20:35:00,
2013-09-14 16:40:00,68.6,47.0,30.08,SE,143,7.0,7.0,46,0.00,,,0.00,564,Wunderground v.1.15,2013-09-14 20:40:00,
2013-09-14 16:45:00,69.2,45.7,30.07,SE,131,6.0,14.0,43,0.00,,,0.00,550,Wunderground v.1.15,2013-09-14 20:45:00,
2013-09-14 16:50:00,69.3,45.2,30.08,South,179,4.0,7.0,42,0.00,,,0.00,534,Wunderground v.1.15,2013-09-14 20:50:00,
2013-09-14 16:55:00,69.3,45.8,30.08,East,94,8.0,10.0,43,0.00,,,0.00,522,Wunderground v.1.15,2013-09-14 20:55:00,
2013-09-14 17:00:00,69.0,46.2,30.08,ESE,114,3.0,13.0,44,0.00,,,0.00,506,Wunderground v.1.15,2013-09-14 21:00:00,
2013-09-14 17:05:00,68.8,46.0,30.08,East,97,5.0,13.0,44,0.00,,,0.00,490,Wunderground v.1.15,2013-09-14 21:05:00,
2013-09-14 17:10:00,69.0,46.2,30.07,East,81,1.0,7.0,44,0.00,,,0.00,473,Wunderground v.1.15,2013-09-14 21:10:00,
2013-09-14 17:15:00,69.4,47.1,30.07,ENE,69,5.0,10.0,45,0.00,,,0.00,457,Wunderground v.1.15,2013-09-14 21:15:00,
2013-09-14 17:20:00,69.3,45.2,30.07,ENE,69,1.0,9.0,42,0.00,,,0.00,443,Wunderground v.1.15,2013-09-14 21:20:00,
2013-09-14 17:25:00,69.3,46.4,30.07,ESE,104,10.0,10.0,44,0.00,,,0.00,427,Wunderground v.1.15,2013-09-14 21:25:00,
2013-09-14 17:30:00,68.9,46.1,30.07,ESE,122,3.0,8.0,44,0.00,,,0.00,413,Wunderground v.1.15,2013-09-14 21:30:00,
2013-09-14 17:35:00,69.3,45.8,30.07,SE,146,8.0,9.0,43,0.00,,,0.00,397,Wunderground v.1.15,2013-09-14 21:35:00,
2013-09-14 17:40:00,69.2,45.7,30.07,South,169,4.0,8.0,43,0.00,,,0.00,380,Wunderground v.1.15,2013-09-14 21:40:00,
2013-09-14 17:45:00,69.1,45.7,30.07,ESE,119,5.0,14.0,43,0.00,,,0.00,364,Wunderground v.1.15,2013-09-14 21:45:00,
2013-09-14 17:50:00,68.8,44.8,30.07,SE,124,5.0,9.0,42,0.00,,,0.00,346,Wunderground v.1.15,2013-09-14 21:50:00,
2013-09-14 17:55:00,68.7,44.7,30.07,SE,132,6.0,9.0,42,0.00,,,0.00,329,Wunderground v.1.15,2013-09-14 21:55:00,
2013-09-14 18:00:00,68.9,45.5,30.07,ENE,60,1.0,5.0,43,0.00,,,0.00,313,Wunderground v.1.15,2013-09-14 22:00:00,
2013-09-14 18:05:00,69.1,45.7,30.07,East,82,7.0,9.0,43,0.00,,,0.00,295,Wunderground v.1.15,2013-09-14 22:05:00,
2013-09-14 18:10:00,69.2,45.1,30.07,ENE,76,8.0,10.0,42,0.00,,,0.00,279,Wunderground v.1.15,2013-09-14 22:10:00,
2013-09-14 18:15:00,69.0,45.6,30.07,ESE,109,4.0,10.0,43,0.00,,,0.00,264,Wunderground v.1.15,2013-09-14 22:15:00,
2013-09-14 18:20:00,68.6,45.8,30.07,East,101,5.0,8.0,44,0.00,,,0.00,220,Wunderground v.1.15,2013-09-14 22:20:00,
2013-09-14 18:25:00,68.6,45.8,30.07,East,99,2.0,8.0,44,0.00,,,0.00,139,Wunderground v.1.15,2013-09-14 22:25:00,
2013-09-14 18:30:00,68.4,45.0,30.07,ENE,58,4.0,9.0,43,0.00,,,0.00,193,Wunderground v.1.15,2013-09-14 22:30:00,
2013-09-14 18:35:00,68.6,45.8,30.07,ESE,109,2.0,9.0,44,0.00,,,0.00,171,Wunderground v.1.15,2013-09-14 22:35:00,
2013-09-14 18:40:00,68.4,45.6,30.07,ESE,107,2.0,4.0,44,0.00,,,0.00,162,Wunderground v.1.15,2013-09-14 22:40:00,
2013-09-14 18:45:00,68.2,46.0,30.07,East,79,3.0,6.0,45,0.00,,,0.00,139,Wunderground v.1.15,2013-09-14 22:45:00,
2013-09-14 18:49:00,68.3,45.5,30.07,East,96,2.0,5.0,44,0.00,,,0.00,134,Wunderground v.1.15,2013-09-14 22:49:00,
2013-09-14 18:54:00,68.4,45.6,30.07,ENE,73,5.0,7.0,44,0.00,,,0.00,72,Wunderground v.1.15,2013-09-14 22:54:00,
2013-09-14 18:59:00,68.5,46.3,30.07,ENE,73,4.0,4.0,45,0.00,,,0.00,111,Wunderground v.1.15,2013-09-14 22:59:00,
2013-09-14 19:04:00,68.3,45.5,30.07,East,96,5.0,6.0,44,0.00,,,0.00,93,Wunderground v.1.15,2013-09-14 23:04:00,
2013-09-14 19:09:00,68.2,46.0,30.07,East,82,3.0,3.0,45,0.00,,,0.00,69,Wunderground v.1.15,2013-09-14 23:09:00,
2013-09-14 19:14:00,67.9,45.8,30.07,East,89,5.0,7.0,45,0.00,,,0.00,60,Wunderground v.1.15,2013-09-14 23:14:00,
2013-09-14 19:19:00,67.6,46.6,30.07,East,98,2.0,3.0,47,0.00,,,0.00,47,Wunderground v.1.15,2013-09-14 23:19:00,
2013-09-14 19:24:00,67.2,46.3,30.07,ESE,105,2.0,5.0,47,0.00,,,0.00,37,Wunderground v.1.15,2013-09-14 23:24:00,
2013-09-14 19:29:00,67.3,45.8,30.07,East,99,1.0,5.0,46,0.00,,,0.00,28,Wunderground v.1.15,2013-09-14 23:29:00,
2013-09-14 19:34:00,67.0,46.7,30.07,East,87,2.0,5.0,48,0.00,,,0.00,19,Wunderground v.1.15,2013-09-14 23:34:00,
2013-09-14 19:39:00,66.7,46.4,30.07,East,86,0.0,1.0,48,0.00,,,0.00,14,Wunderground v.1.15,2013-09-14 23:39:00,
2013-09-14 19:44:00,66.6,46.8,30.07,East,87,0.0,1.0,49,0.00,,,0.00,12,Wunderground v.1.15,2013-09-14 23:44:00,
2013-09-14 19:49:00,66.3,46.6,30.08,East,87,0.0,0.0,49,0.00,,,0.00,5,Wunderground v.1.15,2013-09-14 23:49:00,
2013-09-14 19:54:00,66.1,46.9,30.08,East,87,0.0,0.0,50,0.00,,,0.00,0,Wunderground v.1.15,2013-09-14 23:54:00,
2013-09-14 19:59:00,65.9,46.7,30.08,East,87,0.0,0.0,50,0.00,,,0.00,0,Wunderground v.1.15,2013-09-14 23:59:00,
2013-09-14 20:04:00,65.1,48.0,30.08,East,87,0.0,0.0,54,0.00,,,0.00,0,Wunderground v.1.15,2013-09-15 00:04:00,
2013-09-14 20:09:00,64.2,48.2,30.08,East,87,0.0,0.0,56,0.00,,,0.00,0,Wunderground v.1.15,2013-09-15 00:09:00,
2013-09-14 20:14:00,63.9,48.4,30.09,East,87,0.0,0.0,57,0.00,,,0.00,0,Wunderground v.1.15,2013-09-15 00:14:00,
2013-09-14 20:19:00,63.2,49.1,30.08,East,87,0.0,0.0,60,0.00,,,0.00,0,Wunderground v.1.15,2013-09-15 00:19:00,
2013-09-14 20:24:00,62.5,48.9,30.09,East,87,0.0,0.0,61,0.00,,,0.00,0,Wunderground v.1.15,2013-09-15 00:24:00,
2013-09-14 20:29:00,62.1,48.5,30.09,East,87,0.0,0.0,61,0.00,,,0.00,0,Wunderground v.1.15,2013-09-15 00:29:00,
2013-09-14 20:34:00,61.9,48.7,30.09,East,87,0.0,0.0,62,0.00,,,0.00,0,Wunderground v.1.15,2013-09-15 00:34:00,
2013-09-14 20:39:00,61.8,48.6,30.09,East,87,0.0,0.0,62,0.00,,,0.00,0,Wunderground v.1.15,2013-09-15 00:39:00,
2013-09-14 20:44:00,61.4,48.7,30.09,East,87,0.0,0.0,63,0.00,,,0.00,0,Wunderground v.1.15,2013-09-15 00:44:00,
2013-09-14 20:49:00,60.9,49.1,30.09,East,87,0.0,0.0,65,0.00,,,0.00,0,Wunderground v.1.15,2013-09-15 00:49:00,
2013-09-14 20:54:00,60.3,48.9,30.10,East,86,0.0,0.0,66,0.00,,,0.00,0,Wunderground v.1.15,2013-09-15 00:54:00,
2013-09-14 20:59:00,59.9,49.3,30.09,East,87,0.0,1.0,68,0.00,,,0.00,0,Wunderground v.1.15,2013-09-15 00:59:00,
2013-09-14 21:04:00,59.2,49.0,30.10,East,87,0.0,1.0,69,0.00,,,0.00,0,Wunderground v.1.15,2013-09-15 01:04:00,
2013-09-14 21:09:00,58.8,49.4,30.10,East,87,0.0,0.0,71,0.00,,,0.00,0,Wunderground v.1.15,2013-09-15 01:09:00,
2013-09-14 21:14:00,58.5,49.1,30.10,East,87,0.0,0.0,71,0.00,,,0.00,0,Wunderground v.1.15,2013-09-15 01:14:00,
2013-09-14 21:19:00,58.6,49.6,30.10,East,87,0.0,0.0,72,0.00,,,0.00,0,Wunderground v.1.15,2013-09-15 01:19:00,
2013-09-14 21:24:00,58.3,49.3,30.10,East,87,0.0,0.0,72,0.00,,,0.00,0,Wunderground v.1.15,2013-09-15 01:24:00,
2013-09-14 21:29:00,58.6,49.6,30.10,East,87,0.0,0.0,72,0.00,,,0.00,0,Wunderground v.1.15,2013-09-15 01:29:00,
2013-09-14 21:34:00,58.4,49.4,30.10,East,87,0.0,0.0,72,0.00,,,0.00,0,Wunderground v.1.15,2013-09-15 01:34:00,
2013-09-14 21:39:00,57.9,49.7,30.10,East,87,0.0,0.0,74,0.00,,,0.00,0,Wunderground v.1.15,2013-09-15 01:39:00,
2013-09-14 21:44:00,57.3,49.8,30.10,East,87,0.0,0.0,76,0.00,,,0.00,0,Wunderground v.1.15,2013-09-15 01:44:00,
2013-09-14 21:49:00,57.1,50.0,30.10,East,87,0.0,0.0,77,0.00,,,0.00,0,Wunderground v.1.15,2013-09-15 01:49:00,
2013-09-14 21:55:00,57.2,50.1,30.10,East,87,0.0,0.0,77,0.00,,,0.00,0,Wunderground v.1.15,2013-09-15 01:55:00,
2013-09-14 21:59:00,56.8,50.0,30.10,East,87,0.0,1.0,78,0.00,,,0.00,0,Wunderground v.1.15,2013-09-15 01:59:00,
2013-09-14 22:04:00,57.1,50.0,30.10,East,87,0.0,1.0,77,0.00,,,0.00,0,Wunderground v.1.15,2013-09-15 02:04:00,
2013-09-14 22:09:00,57.1,50.0,30.10,East,87,0.0,0.0,77,0.00,,,0.00,0,Wunderground v.1.15,2013-09-15 02:09:00,
2013-09-14 22:14:00,56.6,49.8,30.10,East,87,0.0,0.0,78,0.00,,,0.00,0,Wunderground v.1.15,2013-09-15 02:14:00,
2013-09-14 22:19:00,56.4,50.0,30.10,East,87,0.0,0.0,79,0.00,,,0.00,0,Wunderground v.1.15,2013-09-15 02:19:00,
2013-09-14 22:24:00,56.3,50.2,30.09,East,87,0.0,0.0,80,0.00,,,0.00,0,Wunderground v.1.15,2013-09-15 02:24:00,
2013-09-14 22:30:00,56.3,50.2,30.09,East,87,0.0,0.0,80,0.00,,,0.00,0,Wunderground v.1.15,2013-09-15 02:30:00,
2013-09-14 22:35:00,56.4,50.0,30.09,East,87,0.0,0.0,79,0.00,,,0.00,0,Wunderground v.1.15,2013-09-15 02:35:00,
2013-09-14 22:40:00,56.3,50.2,30.09,East,87,0.0,0.0,80,0.00,,,0.00,0,Wunderground v.1.15,2013-09-15 02:40:00,
2013-09-14 22:45:00,56.2,49.8,30.09,East,87,0.0,0.0,79,0.00,,,0.00,0,Wunderground v.1.15,2013-09-15 02:45:00,
2013-09-14 22:50:00,56.4,50.0,30.09,East,87,0.0,0.0,79,0.00,,,0.00,0,Wunderground v.1.15,2013-09-15 02:50:00,
2013-09-14 22:55:00,56.2,50.1,30.09,East,87,0.0,0.0,80,0.00,,,0.00,0,Wunderground v.1.15,2013-09-15 02:55:00,
2013-09-14 23:00:00,56.2,49.4,30.09,East,87,0.0,1.0,78,0.00,,,0.00,0,Wunderground v.1.15,2013-09-15 03:00:00,
2013-09-14 23:05:00,56.2,49.8,30.09,East,87,0.0,1.0,79,0.00,,,0.00,0,Wunderground v.1.15,2013-09-15 03:05:00,
2013-09-14 23:10:00,56.4,49.6,30.09,East,87,0.0,0.0,78,0.00,,,0.00,0,Wunderground v.1.15,2013-09-15 03:10:00,
2013-09-14 23:15:00,56.4,49.3,30.09,East,87,0.0,1.0,77,0.00,,,0.00,0,Wunderground v.1.15,2013-09-15 03:15:00,
2013-09-14 23:20:00,56.5,49.0,30.09,East,87,0.0,0.0,76,0.00,,,0.00,0,Wunderground v.1.15,2013-09-15 03:20:00,
2013-09-14 23:25:00,56.6,48.8,30.09,East,87,0.0,0.0,75,0.00,,,0.00,0,Wunderground v.1.15,2013-09-15 03:25:00,
2013-09-14 23:30:00,56.8,49.0,30.09,East,87,0.0,0.0,75,0.00,,,0.00,0,Wunderground v.1.15,2013-09-15 03:30:00,
2013-09-14 23:35:00,57.1,48.9,30.10,East,87,0.0,1.0,74,0.00,,,0.00,0,Wunderground v.1.15,2013-09-15 03:35:00,
2013-09-14 23:40:00,56.9,49.1,30.10,East,87,0.0,0.0,75,0.00,,,0.00,0,Wunderground v.1.15,2013-09-15 03:40:00,
2013-09-14 23:45:00,56.5,49.0,30.09,East,87,0.0,1.0,76,0.00,,,0.00,0,Wunderground v.1.15,2013-09-15 03:45:00,
2013-09-14 23:50:00,56.4,48.9,30.10,East,87,0.0,0.0,76,0.00,,,0.00,0,Wunderground v.1.15,2013-09-15 03:50:00,
2013-09-14 23:55:00,56.3,48.8,30.10,East,87,0.0,0.0,76,0.00,,,0.00,0,Wunderground v.1.15,2013-09-15 03:55:00,